Weather History for Chamberlain, SD

Change the Weather History Date:

Monday, October 21, 2013

  Actual Average Record
Temperature  
Mean Temperature 40 °F -  
Max Temperature 48 °F 57 °F 82 °F (2003)
Min Temperature 32 °F 34 °F 21 °F (1997)
Degree Days  
Heating Degree Days 25    
Moisture  
Dew Point 35 °F    
Average Humidity 83    
Maximum Humidity 92    
Minimum Humidity 54    
Precipitation  
Precipitation 0.06 in - - ()
Sea Level Pressure  
Sea Level Pressure 30.01 in    
Wind  
Wind Speed 4 mph (West)    
Max Wind Speed 10 mph    
Max Gust Speed 17 mph    
Averages and records for this station are not official NWS values.
T = Trace of Precipitation, MM = Missing Value Source: NWS Daily Summary

Daily Weather History Graph

Daily Weather History Graph

Search for Another Location

Airport:

Trip Planner

Search our weather history database for the weather conditions in past years. The results will help you decide how hot, cold, wet, or windy it might be!

Date:

Astronomy

Oct. 21, 2013 Rise Set
Actual Time 7:59 AM CDT 6:43 PM CDT
Civil Twilight 7:30 AM CDT 7:12 PM CDT
Nautical Twilight 6:56 AM CDT 7:46 PM CDT
Astronomical Twilight 6:23 AM CDT 8:19 PM CDT
Moon 8:32 PM CDT (10/21) 10:40 AM CDT (10/21)
Length of Visible Light 11h 42m
Length of Day
10h 44m
Waning Gibbous, 92% of the Moon is Illuminated
Oct 21
Waning Gibbous
Oct 26
Last Quarter
Nov 3
New
Nov 9
First Quarter
Nov 17
Full

Hourly Weather History & Observations

Time (CDT) Temp. Windchill Dew Point Humidity Pressure Visibility Wind Dir Wind Speed Gust Speed Precip Events Conditions
12:52 AM 35.1 °F 32.2 °F 30.0 °F 82% 30.07 in - North 3.5 mph - N/A   Unknown
1:52 AM 32.0 °F 24.8 °F 28.9 °F 88% 30.09 in - WNW 8.1 mph - N/A   Unknown
2:52 AM 34.0 °F 28.8 °F 30.9 °F 89% 30.09 in - West 5.8 mph - N/A   Unknown
3:52 AM 34.0 °F - 32.0 °F 92% 30.07 in - Calm Calm - N/A   Unknown
4:52 AM 34.0 °F 29.8 °F 32.0 °F 92% 30.08 in - WNW 4.6 mph - N/A   Unknown
5:52 AM 34.0 °F 29.8 °F 30.9 °F 89% 30.08 in - WNW 4.6 mph - N/A   Unknown
6:52 AM 34.0 °F - 30.9 °F 89% 30.07 in - Calm Calm - N/A   Unknown
7:52 AM 33.1 °F - 30.0 °F 89% 30.08 in - Calm Calm - N/A   Unknown
10:53 AM - - - N/A% 30.02 in - West 10.4 mph - N/A   Unknown
11:52 AM 46.0 °F 41.0 °F 30.9 °F 56% 30.03 in - West 10.4 mph - N/A   Unknown
12:52 PM 48.0 °F - 32.0 °F 54% 30.01 in - WNW 10.4 mph 17.3 mph N/A   Unknown
1:52 PM 46.0 °F 41.4 °F 37.0 °F 71% 30.01 in - WNW 9.2 mph - N/A   Unknown
2:52 PM 45.0 °F 42.6 °F 37.0 °F 74% 29.99 in - NW 4.6 mph - N/A   Unknown
3:52 PM 45.0 °F 43.5 °F 37.9 °F 76% 29.98 in - West 3.5 mph - N/A   Unknown
4:52 PM 45.0 °F - 37.9 °F 76% 29.98 in - Calm Calm - N/A   Unknown
5:52 PM 45.0 °F - 39.0 °F 80% 29.97 in - Calm Calm - N/A   Unknown
6:52 PM 43.0 °F - 39.0 °F 86% 29.97 in - Calm Calm - N/A   Unknown
7:52 PM 42.1 °F - 37.9 °F 85% 29.97 in - Calm Calm - N/A   Unknown
8:52 PM 42.1 °F 40.2 °F 39.0 °F 89% 29.95 in - SE 3.5 mph - 0.01 in   Unknown
9:52 PM 42.1 °F 40.2 °F 39.9 °F 92% 29.95 in - SSE 3.5 mph - 0.04 in   Unknown
10:52 PM 42.1 °F 37.7 °F 39.9 °F 92% 29.90 in - South 6.9 mph - 0.01 in   Unknown
11:52 PM 42.1 °F 40.2 °F 39.9 °F 92% 29.92 in - SSE 3.5 mph - N/A   Unknown